Content
SEND FEEDBACK

Daily
Averages
Monthly
Summary
United States of America

BULLHEAD CITY, ARIZONA


Home > North America > United States > Arizona
Elevation: 580 feet     Latitude: 35 07N     Longitude: 114 36W

WEATHER
 
SELECT A DAY
Number of Records: 181,051;   Date Range: 7/1/96 - 7/7/14
 
SHARE

PRINT THIS DATA

[ ← Previous Day ]
WEATHER ALMANAC - JANUARY 30, 2013
[ Next Day → ]
[ °C ]   °F
Weather ElementAverageHighLow
Temperature49.8 °F62.6 °F (3:15 pm)39.2 °F (5:35 am)
Dewpoint33.6 °F37.4 °F (6:35 pm)26.6 °F (3:35 pm)
Humidity57.8 %87 % (5:35 am)26 % (3:35 pm)
Barometer30.31 in30.40 in (10:15 am)30.24 in (6:15 pm)
Wind Speed2.7 mph6.9 mph (6:35 am)
Weather ElementAverage
Visibility10 mi
Wind DirectionESE (108.4 °)

Weather ElementTotal
Precipitation---
Heating Degree Days14.1 (Base 65)
Growing Degree Days0.9 (Base 50)
Averaged from 70 records on January 30, 2013
WEATHER CONDITIONS BREAKOUT
WIND DIRECTION BREAKOUT
WEATHER BY HOUR - JANUARY 30, 2013
[ °C ]   °F
Local TimeTemperatureDewpointHumidityBarometerVisibilityWind DirectionWind SpeedGust SpeedPrecipitationEventsConditions
12:35 AM44.6 °F32.0 °F61 %30.27 in10.0 miCalmClear
12:55 AM44.6 °F32.0 °F61 %30.27 in10.0 miENE (70°)3.5 mphClear
1:15 AM42.8 °F32.0 °F66 %30.28 in10.0 miNE (50°)3.5 mphClear
1:35 AM44.6 °F32.0 °F61 %30.28 in10.0 miNorth (10°)4.6 mphClear
1:55 AM44.6 °F32.0 °F61 %30.28 in10.0 miNNE (20°)5.8 mphClear
2:15 AM44.6 °F32.0 °F61 %30.28 in10.0 miNorth (360°)4.6 mphClear
2:35 AM44.6 °F32.0 °F61 %30.29 in10.0 miNorth (360°)5.8 mphClear
2:55 AM42.8 °F32.0 °F66 %30.31 in10.0 miCalmClear
3:15 AM44.6 °F35.6 °F71 %30.31 in10.0 miNorth (10°)3.5 mphClear
3:35 AM44.6 °F35.6 °F71 %30.32 in10.0 miWSW (240°)3.5 mphClear
3:55 AM41.0 °F35.6 °F81 %30.32 in10.0 miESE (120°)3.5 mphClear
4:15 AM41.0 °F35.6 °F81 %30.32 in10.0 miENE (70°)5.8 mphClear
4:35 AM41.0 °F35.6 °F81 %30.32 in10.0 miNorth (350°)4.6 mphClear
4:55 AM41.0 °F35.6 °F81 %30.33 in10.0 miCalmClear
5:15 AM41.0 °F35.6 °F81 %30.33 in10.0 miSSW (210°)4.6 mphClear
5:35 AM39.2 °F35.6 °F87 %30.33 in10.0 miSE (130°)5.8 mphClear
5:55 AM39.2 °F35.6 °F87 %30.34 in10.0 miEast (100°)4.6 mphClear
6:15 AM39.2 °F35.6 °F87 %30.35 in10.0 miESE (110°)4.6 mphClear
6:35 AM39.2 °F35.6 °F87 %30.35 in10.0 miEast (100°)6.9 mphClear
6:55 AM39.2 °F35.6 °F87 %30.35 in10.0 miNorth (360°)3.5 mphClear
7:15 AM39.2 °F35.6 °F87 %30.35 in10.0 miNNE (30°)4.6 mphClear
7:35 AM39.2 °F35.6 °F87 %30.35 in10.0 miCalmClear
7:55 AM39.2 °F32.0 °F75 %30.35 in10.0 miCalmClear
8:15 AM39.2 °F35.6 °F87 %30.37 in10.0 miSouth (190°)6.9 mphClear
8:35 AM39.2 °F35.6 °F87 %30.38 in10.0 miSouth (190°)5.8 mphClear
8:55 AM41.0 °F35.6 °F81 %30.38 in10.0 miCalmClear
9:15 AM42.8 °F35.6 °F76 %30.38 in10.0 miNW (320°)3.5 mphClear
9:35 AM42.8 °F35.6 °F76 %30.38 in10.0 miCalmClear
9:55 AM44.6 °F35.6 °F71 %30.39 in10.0 miCalmClear
10:15 AM46.4 °F35.6 °F66 %30.40 in10.0 miCalmClear
10:55 AM48.2 °F35.6 °F62 %30.40 in10.0 miCalmClear
11:15 AM50.0 °F35.6 °F58 %30.40 in10.0 miSouth (190°)3.5 mphClear
11:35 AM50.0 °F35.6 °F58 %30.39 in10.0 miSW (230°)3.5 mphClear
11:55 AM51.8 °F33.8 °F50 %30.39 in10.0 miNNW (340°)3.5 mphClear
12:15 PM53.6 °F32.0 °F44 %30.38 in10.0 miNNW (330°)3.5 mphClear
12:35 PM55.4 °F32.0 °F41 %30.37 in10.0 miNW (310°)4.6 mphClear
12:55 PM55.4 °F32.0 °F41 %30.36 in10.0 miCalmClear
1:15 PM57.2 °F32.0 °F38 %30.35 in10.0 miCalmClear
1:35 PM57.2 °F32.0 °F38 %30.34 in10.0 miWest (270°)4.6 mphClear
1:55 PM59.0 °F32.0 °F36 %30.32 in10.0 miWest (260°)5.8 mphClear
2:15 PM59.0 °F30.2 °F34 %30.31 in10.0 miSSW (200°)3.5 mphClear
2:35 PM60.8 °F28.4 °F29 %30.30 in10.0 miWSW (240°)4.6 mphClear
2:55 PM60.8 °F28.4 °F29 %30.29 in10.0 miCalmClear
3:15 PM62.6 °F28.4 °F27 %30.28 in10.0 miCalmClear
3:35 PM62.6 °F26.6 °F26 %30.28 in10.0 miNorth (360°)3.5 mphClear
3:55 PM62.6 °F28.4 °F27 %30.27 in10.0 miNNW (340°)4.6 mphClear
4:15 PM62.6 °F26.6 °F26 %30.27 in10.0 miCalmClear
4:35 PM62.6 °F28.4 °F27 %30.27 in10.0 miWSW (240°)4.6 mphClear
4:55 PM62.6 °F28.4 °F27 %30.26 in10.0 miCalmClear
5:15 PM62.6 °F28.4 °F27 %30.25 in10.0 miSW (230°)3.5 mphClear
5:35 PM62.6 °F30.2 °F30 %30.25 in10.0 miCalmClear
5:55 PM62.6 °F30.2 °F30 %30.25 in10.0 miCalmClear
6:15 PM60.8 °F32.0 °F34 %30.24 in10.0 miCalmClear
6:35 PM57.2 °F37.4 °F48 %30.24 in10.0 miCalmClear
6:55 PM55.4 °F37.4 °F51 %30.25 in10.0 miEast (100°)3.5 mphClear
7:15 PM53.6 °F37.4 °F54 %30.26 in10.0 miEast (90°)3.5 mphClear
7:35 PM53.6 °F35.6 °F51 %30.26 in10.0 miEast (90°)3.5 mphClear
7:55 PM53.6 °F35.6 °F51 %30.26 in10.0 miEast (90°)3.5 mphClear
8:15 PM53.6 °F35.6 °F51 %30.26 in10.0 miCalmClear
8:35 PM53.6 °F35.6 °F51 %30.26 in10.0 miENE (70°)3.5 mphClear
8:55 PM53.6 °F35.6 °F51 %30.26 in10.0 miEast (90°)5.8 mphClear
9:15 PM51.8 °F35.6 °F54 %30.26 in10.0 miNE (50°)4.6 mphClear
9:35 PM51.8 °F35.6 °F54 %30.26 in10.0 miCalmClear
9:55 PM50.0 °F35.6 °F58 %30.26 in10.0 miCalmClear
10:15 PM50.0 °F35.6 °F58 %30.26 in10.0 miNE (40°)3.5 mphClear
10:35 PM50.0 °F35.6 °F58 %30.26 in10.0 miCalmClear
10:55 PM50.0 °F35.6 °F58 %30.26 in10.0 miNNE (30°)3.5 mphClear
11:15 PM50.0 °F35.6 °F58 %30.26 in10.0 miCalmClear
11:35 PM48.2 °F35.6 °F62 %30.27 in10.0 miCalmClear
11:55 PM48.2 °F37.4 °F66 %30.27 in10.0 miCalmClear
Hourly data recorded from KIFP, located miles away from Bullhead City, Arizona







STORIES FROM OUR PARTNERS